This is the latest recevied weather packets stored in our database for station/object KJ6APE. If no packets are shown the sender has not sent any weather packets the latest 10 day(s).
| Time | Temp. | Humidity | Pressure | Rain* | Wind** | Luminosity | Snow |
|---|---|---|---|---|---|---|---|
| 1778182649 | 23.89° C | 51% | 1018.2 hPa | 0 mm | - | 977 W/m² | - |
| 1778182346 | 23.89° C | 53% | 1018.4 hPa | 0 mm | - | 972 W/m² | - |
| 1778182042 | 23.33° C | 51% | 1018.4 hPa | 0 mm | - | 967 W/m² | - |
| 1778181739 | 22.78° C | 52% | 1018.4 hPa | 0 mm | - | 963 W/m² | - |
| 1778181435 | 22.78° C | 54% | 1018.5 hPa | 0 mm | - | 958 W/m² | - |
| 1778181132 | 22.78° C | 53% | 1018.6 hPa | 0 mm | - | 953 W/m² | - |
| 1778180829 | 22.78° C | 53% | 1018.7 hPa | 0 mm | - | 948 W/m² | - |
| 1778180528 | 22.22° C | 53% | 1018.7 hPa | 0 mm | - | 943 W/m² | - |
| 1778180226 | 22.22° C | 53% | 1018.7 hPa | 0 mm | - | 935 W/m² | - |
| 1778179922 | 22.78° C | 54% | 1018.8 hPa | 0 mm | - | 929 W/m² | - |
| 1778179620 | 22.22° C | 56% | 1018.7 hPa | 0 mm | - | 917 W/m² | - |
| 1778179318 | 21.11° C | 59% | 1018.9 hPa | 0 mm | - | 910 W/m² | - |
| 1778179014 | 21.67° C | 55% | 1019 hPa | 0 mm | - | 899 W/m² | - |
| 1778178711 | 21.67° C | 57% | 1019.1 hPa | 0 mm | - | 888 W/m² | - |
| 1778178408 | 21.67° C | 56% | 1018.9 hPa | 0 mm | - | 879 W/m² | - |
| 1778178103 | 20.56° C | 60% | 1019.2 hPa | 0 mm | - | 867 W/m² | - |
| 1778177800 | 20.56° C | 59% | 1019.2 hPa | 0 mm | - | 857 W/m² | - |
| 1778177496 | 20° C | 59% | 1019.1 hPa | 0 mm | - | 845 W/m² | - |
| 1778177193 | 20° C | 60% | 1019.2 hPa | 0 mm | - | 830 W/m² | - |
| 1778176890 | 20.56° C | 59% | 1019.2 hPa | 0 mm | - | 820 W/m² | - |
| 1778176586 | 20° C | 60% | 1019.2 hPa | 0 mm | - | 806 W/m² | - |
| 1778176283 | 20° C | 61% | 1019.3 hPa | 0 mm | - | 792 W/m² | - |
| 1778175980 | 20° C | 61% | 1019.5 hPa | 0 mm | - | 778 W/m² | - |
| 1778175679 | 20° C | 60% | 1019.2 hPa | 0 mm | - | 764 W/m² | - |
| 1778175375 | 20° C | 63% | 1019.3 hPa | 0 mm | - | 750 W/m² | - |
* Rain latest hour (hover to see other rain measurements)
** Current wind speed in m/s (hover to see current wind gust speed)